Wind_Speed
30 29 29 29 28 27 25 24 22 21 19 18 16 15 14 14 13 12 10 10 9 8 7 7 6 5 5 5 4 5 5 5 4 4 3 2 2 3 4 4 5 6 7
31 30 30 30 30 29 28 27 25 24 22 20 19 17 17 16 15 14 12 11 11 10 9 8 7 7 6 6 6 6 6 6 5 5 5 4 3 3 4 4 5 6 7
32 31 31 31 31 30 30 29 28 26 25 23 21 20 19 18 17 16 14 13 12 12 11 10 9 8 8 7 7 7 7 6 6 6 6 5 5 5 5 5 6 7 7
33 33 32 33 32 32 32 31 30 29 28 26 24 23 21 20 19 18 17 15 14 13 13 12 11 10 9 9 9 8 8 7 7 7 7 7 6 6 6 6 7 7 8
34 33 34 35 34 35 34 33 32 31 30 28 27 26 24 22 21 20 18 17 16 15 15 14 13 12 11 10 10 10 9 9 8 8 8 8 7 7 7 7 8 8 9
35 35 35 36 37 37 37 37 35 33 32 31 29 28 27 25 23 22 21 19 18 17 16 16 14 13 12 12 12 11 11 10 10 9 9 9 9 9 9 9 9 10 10
37 36 36 37 38 39 39 38 38 36 35 34 32 31 29 27 26 24 23 22 20 19 18 17 16 15 14 14 13 13 12 12 11 11 11 11 11 10 10 10 11 11 12
39 38 38 39 40 41 41 40 40 39 37 36 35 33 32 30 28 27 25 24 22 21 20 19 18 17 16 15 15 14 14 13 13 13 13 12 12 12 12 12 12 13 13
41 40 39 40 41 42 43 42 42 41 40 39 37 36 34 32 30 29 27 26 24 23 22 21 20 18 17 17 16 16 15 15 14 14 14 14 14 14 14 14 14 15 15
43 42 41 41 42 43 44 44 44 43 42 41 40 38 36 34 33 31 29 28 27 25 24 22 21 20 19 18 18 17 17 16 16 16 16 15 15 15 16 16 16 16 17
44 43 43 42 42 44 45 46 46 45 44 44 42 41 39 37 35 33 32 30 29 27 25 24 23 22 21 20 19 19 19 18 18 18 17 17 17 17 17 17 18 18 18
46 45 45 45 45 45 46 47 47 47 47 46 45 43 41 39 37 36 34 32 31 29 27 26 25 24 23 22 21 21 21 20 20 20 19 19 19 19 19 19 19 20 20
49 48 47 46 47 47 47 47 48 48 48 48 47 46 44 42 39 38 36 34 33 31 29 28 26 26 25 24 23 22 22 22 22 21 21 21 21 21 21 21 21 22 22
51 49 48 46 47 47 47 48 50 50 49 49 49 48 46 44 42 40 38 36 35 33 32 30 29 28 27 26 25 24 24 24 23 23 23 23 23 23 23 23 23 23 24
54 52 52 49 48 48 48 48 50 51 50 51 51 50 48 46 44 42 40 39 37 35 34 33 31 30 28 28 27 26 26 26 25 25 25 25 25 25 25 25 25 25 26
56 54 54 54 52 51 51 51 50 52 53 52 52 52 50 49 47 45 43 41 39 38 36 35 34 32 31 29 29 28 28 28 27 27 27 26 27 27 27 27 27 27 27
58 57 56 56 54 52 53 53 52 53 55 53 51 53 53 51 49 47 45 43 42 40 39 37 36 34 33 32 31 30 30 29 29 29 28 28 28 28 28 28 29 29 29
60 59 58 56 55 53 53 54 54 54 55 55 53 53 54 54 52 49 48 46 44 43 41 39 38 36 35 34 34 33 32 31 30 30 30 30 30 30 30 30 30 30 30
60 59 59 57 56 55 53 54 54 54 54 55 55 54 54 54 54 52 50 48 46 45 43 41 40 38 38 37 36 35 34 33 32 32 32 32 32 32 31 32 32 32 32
60 59 58 58 57 57 55 53 52 53 54 54 55 55 54 54 54 54 52 51 48 47 45 44 42 41 40 39 38 38 37 35 34 34 34 33 34 33 33 33 33 33 32
57 58 59 58 57 58 57 54 53 52 52 53 55 55 56 55 55 54 53 53 51 49 48 46 45 44 43 42 41 40 39 38 37 36 36 36 36 35 35 34 34 34 34
54 55 57 58 58 57 56 54 54 52 53 51 52 52 53 54 55 53 53 53 52 51 50 50 48 47 46 44 43 42 41 39 38 38 38 37 38 37 36 35 35 35 35
47 50 53 55 57 57 57 53 53 52 52 51 51 50 50 50 52 52 52 53 54 54 52 51 51 49 48 46 44 43 42 41 41 41 39 39 38 38 37 36 36 36 36
39 43 46 50 52 54 54 53 53 52 51 49 48 48 50 49 49 50 50 52 53 54 54 52 52 50 49 47 45 44 43 42 41 40 39 38 38 38 38 37 37 37 36
31 36 38 42 46 48 49 50 51 51 50 48 47 48 49 49 50 52 50 50 50 51 51 51 50 49 49 48 47 45 44 43 43 42 40 40 39 39 39 38 38 38 38
23 28 33 38 39 42 42 45 49 49 49 49 47 46 48 48 48 51 52 50 49 49 49 49 48 47 48 47 46 46 45 44 44 43 41 41 41 40 40 40 40 40 40
Wind_Direction
242 241 240 239 238 237 237 237 238 240 242 244 245 246 248 249 249 249 252 254 255 257 258 258 257 257 255 251 243 235 231 233 235 240 248 262 291 319 335 342 347 351 355
244 242 240 240 240 238 238 237 237 238 241 242 244 245 246 247 248 248 249 251 253 254 256 257 256 257 255 254 251 245 240 241 242 245 252 261 276 296 314 327 334 340 344
246 244 241 240 240 239 239 239 238 238 239 241 242 244 245 246 246 247 247 249 252 253 255 255 255 257 257 255 253 251 248 248 249 252 257 264 273 288 303 315 322 327 331
247 244 242 239 239 239 239 240 240 239 239 240 241 243 244 244 245 245 246 248 251 253 255 255 254 255 257 255 253 253 254 255 256 259 261 266 273 283 293 303 310 316 321
246 244 243 240 239 239 239 239 240 240 239 239 240 241 242 243 243 243 244 246 249 252 254 254 254 254 255 255 254 254 256 258 260 262 264 268 271 278 286 294 302 308 314
245 244 242 240 238 239 239 238 239 239 239 239 239 240 241 242 243 242 243 245 247 250 253 254 254 254 254 255 255 255 257 259 261 262 265 267 269 274 282 290 295 301 307
244 243 242 240 238 237 238 238 237 238 239 239 239 239 240 241 242 243 243 244 246 249 252 254 255 255 254 255 255 256 258 260 262 263 265 267 269 272 278 285 290 295 301
244 244 242 241 239 237 237 238 237 237 237 238 238 238 239 240 241 242 243 244 245 248 251 253 254 255 255 255 256 257 258 260 262 263 266 268 270 272 276 282 286 290 296
244 243 242 242 240 237 237 237 237 236 236 236 236 237 238 239 240 241 243 244 244 246 250 252 253 254 255 256 257 257 258 259 261 262 264 267 270 273 276 280 284 288 293
244 243 241 241 239 237 236 236 236 235 235 236 236 236 237 238 240 241 242 243 244 245 248 250 252 253 254 256 257 257 258 259 260 261 264 267 270 273 276 279 283 287 290
242 240 239 239 237 237 236 235 235 234 234 235 235 235 237 238 239 241 241 242 243 244 246 249 251 251 253 255 256 257 258 259 261 262 263 266 269 272 275 278 281 285 288
240 239 238 238 238 237 236 235 235 234 234 234 235 235 236 237 238 240 241 242 243 244 246 248 250 250 251 253 255 257 259 260 262 262 264 266 268 271 275 277 280 283 286
239 238 237 237 238 236 235 233 233 234 234 233 234 234 235 236 237 239 241 242 242 243 245 247 249 250 251 253 254 257 259 261 262 263 264 266 268 271 274 276 279 282 285
239 237 235 236 237 235 234 233 233 233 233 233 233 233 234 236 237 238 240 241 242 243 244 246 248 249 251 253 254 256 259 261 262 263 264 266 268 270 273 276 278 282 285
238 236 235 234 234 233 231 231 232 232 233 233 232 232 233 234 236 237 238 240 241 242 243 245 246 248 251 253 254 256 258 261 262 263 264 265 268 270 273 275 278 281 284
236 235 233 233 232 232 232 231 231 231 232 232 232 231 231 233 234 236 237 239 240 242 243 245 246 248 250 252 254 256 258 261 263 264 265 266 269 271 273 276 278 281 283
235 233 232 231 230 230 231 230 230 230 231 232 232 231 231 232 233 234 236 238 239 241 243 245 246 248 250 252 254 255 258 261 263 264 266 267 270 272 274 276 278 280 283
233 231 230 229 229 229 229 230 229 230 231 231 232 231 231 230 231 233 235 237 239 241 243 245 246 247 249 252 253 255 257 260 262 265 266 267 270 272 274 276 277 280 283
231 230 228 228 227 227 227 228 228 228 230 230 231 231 231 230 230 232 234 236 238 241 243 245 246 248 249 252 253 255 257 259 261 264 265 267 270 272 274 275 277 279 281
230 228 228 227 226 224 223 225 226 226 228 229 230 231 230 229 230 231 234 236 238 240 242 244 246 248 249 252 253 255 257 258 261 263 265 267 270 271 273 274 277 279 281
229 228 227 226 225 223 223 224 225 226 227 228 230 231 230 230 231 231 234 236 238 240 242 244 245 247 249 251 253 255 257 258 261 262 265 267 268 270 272 273 276 278 280
227 226 225 224 223 222 222 224 223 224 225 225 228 229 229 230 230 230 233 236 238 240 241 243 246 247 250 251 253 255 256 257 260 262 265 266 267 269 271 273 275 276 279
225 225 222 221 221 221 221 221 222 223 223 224 225 225 227 228 231 232 233 236 237 239 241 243 245 247 250 252 253 255 256 258 260 262 264 267 267 268 270 272 274 276 277
223 221 220 220 220 219 219 219 219 221 222 222 224 227 228 229 231 232 234 236 237 239 240 243 247 247 249 251 252 254 256 259 261 261 263 266 267 269 270 272 274 275 276
215 215 218 216 216 216 218 218 217 219 220 221 224 226 227 228 229 231 233 235 237 239 241 244 247 248 249 251 252 254 255 258 262 262 263 265 268 270 271 272 273 275 276
207 210 210 209 213 214 216 217 215 217 219 221 222 225 227 228 230 231 232 235 236 239 241 244 247 250 251 252 253 254 257 261 263 263 263 265 267 270 271 273 273 275 276
Height
5849 5851 5854 5856 5858 5860 5862 5865 5867 5868 5870 5871 5873 5874 5875 5876 5877 5878 5879 5879 5880 5880 5880 5880 5880 5880 5880 5880 5880 5880 5880 5880 5880 5880 5880 5879 5879 5878 5878 5877 5876 5875 5874
5844 5847 5849 5852 5854 5856 5859 5861 5863 5865 5867 5869 5870 5872 5873 5874 5875 5876 5877 5878 5878 5878 5879 5879 5879 5879 5879 5880 5880 5880 5880 5880 5880 5880 5879 5879 5879 5878 5877 5877 5876 5875 5874
5839 5842 5844 5847 5849 5852 5855 5857 5859 5862 5864 5866 5867 5869 5871 5872 5873 5874 5875 5876 5877 5877 5877 5877 5878 5878 5878 5879 5879 5879 5879 5879 5879 5879 5879 5878 5878 5878 5877 5876 5875 5874 5873
5833 5836 5838 5841 5844 5847 5850 5853 5855 5858 5860 5862 5864 5866 5868 5869 5871 5872 5873 5874 5875 5875 5876 5876 5876 5877 5877 5877 5878 5878 5878 5878 5878 5878 5878 5877 5877 5877 5876 5875 5875 5874 5873
5827 5830 5832 5836 5839 5842 5845 5848 5850 5853 5856 5858 5861 5862 5864 5866 5868 5869 5870 5871 5872 5873 5874 5874 5875 5875 5876 5876 5876 5876 5877 5877 5877 5877 5876 5876 5876 5876 5875 5874 5874 5873 5871
5820 5823 5826 5829 5832 5835 5839 5842 5845 5848 5851 5854 5856 5858 5861 5863 5865 5866 5867 5869 5870 5871 5871 5872 5873 5873 5874 5874 5875 5875 5875 5875 5875 5875 5875 5875 5874 5874 5874 5873 5872 5871 5870
5812 5815 5819 5822 5825 5829 5832 5836 5839 5843 5846 5849 5852 5854 5856 5859 5861 5863 5864 5866 5867 5868 5869 5870 5870 5871 5872 5872 5873 5873 5873 5873 5873 5873 5873 5873 5873 5872 5872 5871 5870 5870 5868
5804 5808 5811 5814 5818 5821 5825 5829 5833 5836 5840 5843 5846 5849 5852 5854 5857 5859 5861 5862 5864 5865 5866 5867 5868 5869 5869 5870 5870 5871 5871 5871 5871 5871 5871 5871 5871 5870 5870 5869 5868 5868 5866
5796 5799 5803 5806 5810 5814 5818 5821 5826 5830 5833 5837 5840 5843 5846 5849 5852 5854 5857 5858 5860 5861 5862 5864 5865 5866 5867 5867 5868 5868 5868 5869 5869 5869 5869 5869 5868 5868 5867 5867 5866 5865 5864
5787 5790 5794 5798 5801 5805 5809 5813 5818 5822 5826 5830 5834 5837 5841 5844 5847 5850 5852 5854 5856 5857 5859 5860 5861 5863 5864 5864 5865 5865 5866 5866 5866 5866 5866 5866 5866 5865 5865 5864 5863 5862 5861
5777 5781 5785 5788 5792 5796 5801 5805 5809 5814 5819 5823 5827 5831 5835 5838 5842 5845 5847 5849 5851 5853 5855 5856 5858 5859 5860 5861 5862 5862 5862 5863 5863 5863 5863 5863 5863 5862 5862 5861 5860 5859 5858
5766 5771 5775 5779 5783 5787 5791 5796 5801 5805 5810 5815 5820 5824 5828 5832 5836 5839 5842 5844 5847 5848 5850 5852 5853 5855 5856 5857 5858 5859 5859 5859 5860 5860 5860 5859 5859 5859 5858 5858 5857 5856 5855
5755 5761 5765 5770 5773 5778 5782 5787 5792 5796 5802 5807 5812 5817 5821 5825 5829 5833 5836 5839 5841 5843 5845 5847 5849 5850 5852 5853 5854 5855 5855 5855 5856 5856 5856 5856 5855 5855 5854 5854 5853 5852 5851
5745 5750 5755 5759 5764 5768 5773 5778 5782 5787 5793 5798 5804 5809 5814 5818 5823 5827 5830 5833 5835 5838 5840 5842 5844 5845 5847 5848 5849 5850 5851 5851 5851 5852 5851 5851 5851 5851 5850 5850 5849 5848 5847
5732 5739 5745 5749 5753 5758 5763 5767 5773 5778 5784 5789 5794 5800 5805 5811 5815 5819 5823 5826 5829 5832 5834 5836 5838 5840 5841 5843 5844 5845 5846 5847 5847 5847 5847 5847 5847 5846 5846 5845 5844 5843 5842
5718 5726 5732 5738 5743 5748 5753 5758 5763 5769 5774 5780 5785 5791 5797 5802 5807 5812 5816 5819 5822 5825 5828 5830 5832 5834 5836 5837 5839 5840 5841 5841 5842 5842 5842 5842 5842 5841 5841 5840 5839 5838 5837
5704 5712 5719 5726 5731 5737 5743 5748 5754 5759 5765 5771 5776 5782 5788 5794 5799 5803 5808 5812 5815 5818 5821 5823 5826 5828 5830 5832 5833 5834 5835 5836 5836 5837 5837 5836 5836 5836 5835 5835 5834 5833 5832
5690 5698 5705 5712 5719 5726 5732 5738 5744 5749 5755 5762 5767 5773 5779 5785 5790 5795 5799 5803 5807 5810 5813 5816 5819 5821 5823 5825 5827 5828 5829 5830 5830 5831 5831 5831 5831 5830 5830 5829 5828 5827 5826
5676 5684 5691 5699 5706 5714 5720 5727 5733 5740 5746 5752 5758 5764 5769 5775 5781 5786 5791 5795 5799 5803 5806 5809 5812 5814 5816 5818 5820 5821 5822 5823 5824 5824 5825 5825 5824 5824 5823 5823 5822 5821 5820
5662 5670 5678 5686 5694 5702 5709 5716 5723 5730 5736 5743 5749 5755 5760 5766 5771 5777 5782 5787 5791 5794 5798 5801 5804 5807 5809 5810 5812 5814 5815 5816 5817 5817 5818 5818 5818 5817 5817 5816 5815 5814 5813
5649 5657 5666 5674 5682 5690 5699 5707 5714 5721 5728 5734 5740 5746 5752 5758 5763 5768 5774 5778 5782 5786 5790 5793 5796 5798 5800 5802 5804 5806 5807 5808 5809 5810 5810 5811 5810 5810 5809 5809 5808 5807 5806
5637 5645 5653 5662 5670 5679 5689 5697 5704 5711 5718 5725 5731 5738 5743 5749 5754 5759 5764 5769 5773 5777 5781 5784 5787 5789 5791 5794 5796 5797 5799 5801 5801 5802 5802 5802 5802 5802 5801 5801 5800 5799 5798
5627 5634 5642 5651 5660 5669 5678 5686 5694 5702 5709 5716 5722 5728 5735 5740 5746 5750 5755 5760 5764 5768 5771 5775 5777 5780 5783 5785 5787 5788 5790 5791 5792 5793 5793 5793 5793 5793 5793 5793 5792 5791 5790
5619 5625 5633 5642 5650 5659 5668 5677 5685 5693 5701 5709 5715 5721 5726 5732 5738 5743 5747 5750 5754 5758 5761 5765 5767 5770 5773 5775 5777 5779 5781 5782 5783 5784 5785 5784 5784 5784 5784 5784 5783 5783 5782
5613 5620 5627 5635 5644 5652 5660 5669 5677 5685 5694 5701 5707 5713 5718 5724 5730 5734 5738 5742 5745 5749 5752 5755 5758 5760 5763 5766 5768 5770 5771 5772 5773 5774 5775 5776 5776 5775 5775 5775 5774 5773 5773
5611 5617 5623 5631 5638 5646 5654 5661 5670 5678 5686 5693 5699 5705 5711 5717 5721 5726 5730 5734 5737 5740 5743 5746 5749 5752 5754 5757 5759 5760 5762 5763 5764 5764 5765 5766 5766 5766 5766 5765 5765 5764 5763